This demonstration page uses our WeatherBlox Daily Observations layout. Learn more.

Left ArrowRight Arrow

Hourly Observations for June 23, 2019

Temp ( °F °C ) Dew Point ( °F °C ) Humidity (%) Winds ( mph kmh ) Pressure ( in mb ) Visibility ( mi km ) Precip ( " mm )
12:56 am 00:56 Cloudy 72 22 64 18 78 78 SSE 13 20 29.78 1009 10 16 0.00 0.00
1:56 am 01:56 Cloudy 72 22 63 17 73 73 SE 13 20 29.78 1008 10 16 0.00 0.00
2:56 am 02:56 Cloudy 72 22 63 17 73 73 SE 10 17 29.78 1008 10 16 0.00 0.00
3:56 am 03:56 Cloudy 70 21 63 17 78 78 Calm 29.79 1009 10 16 0.00 0.00
4:56 am 04:56 Cloudy 68 20 63 17 83 83 ESE 5 7 29.75 1008 10 16 0.00 0.00
5:56 am 05:56 Mostly Cloudy 68 20 63 17 83 83 S 7 11 29.74 1007 10 16 0.00 0.00
6:56 am 06:56 Cloudy 68 20 63 17 83 83 WSW 7 11 29.77 1008 10 16 0.00 0.00
7:56 am 07:56 Mostly Cloudy 68 20 63 17 83 83 S 13 20 29.75 1008 10 16 0.00 0.00
8:28 am 08:28 Mostly Cloudy with Light Rain 68 20 63 17 83 83 S 8 13 29.76 1008 10 16 0.00 0.00
8:56 am 08:56 Mostly Cloudy with Rain 66 19 63 17 88 88 SW 6 9 29.77 1008 3 5 0.00 0.00
9:56 am 09:56 Mostly Cloudy with Rain 67 19.3 63 17.3 88 88 SW 3 6 29.74 1007 5 8 0.00 0.00
10:41 am 10:41 Partly Cloudy 68 20 63 17 83 83 NW 9 15 29.71 1006 10 16 0.00 0.00
10:56 am 10:56 Partly Cloudy 68 20 63 17 83 83 W 9 15 29.71 1006 10 16 0.00 0.00
11:56 am 11:56 Mostly Cloudy 70 21 63 17 78 78 Calm 29.72 1006 10 16 0.00 0.00
12:56 pm 12:56 Mostly Cloudy 75 24 64 18 69 69 WNW 5 7 29.71 1006 10 16 0.00 0.00
1:56 pm 13:56 Mostly Cloudy 75 24 64 18 69 69 SSE 7 11 29.71 1006 10 16 0.00 0.00
2:41 pm 14:41 Mostly Cloudy with Light Rain 75 24 64 18 69 69 SSE 12 19 29.69 1006 8 13 0.00 0.00
2:56 pm 14:56 Mostly Cloudy with Light Rain 70 21 66 19 88 88 Calm 29.70 1006 7 11 0.00 0.00
3:56 pm 15:56 Mostly Cloudy 75 24 64 18 69 69 SSE 12 19 29.67 1005 10 16 0.00 0.00
4:39 pm 16:39 Mostly Cloudy with Showers 73 23 66 19 78 78 S 9 15 29.66 1004 4 6 0.00 0.00
4:46 pm 16:46 Mostly Cloudy with Showers 70 21 66 19 88 88 W 10 17 29.67 1005 6 10 0.23 5.84
4:56 pm 16:56 Mostly Cloudy with Showers 70 21 66 19 88 88 SSW 9 15 29.67 1005 6 10 0.23 5.84
5:03 pm 17:03 Partly Cloudy 72 22 66 19 83 83 SSW 9 15 29.67 1005 10 16 0.00 0.00
5:17 pm 17:17 Mostly Cloudy with Showers 70 21 66 19 88 88 WSW 18 30 29.67 1005 N/A 0.00 0.00
5:57 pm 17:57 Partly Cloudy 72 22 66 19 83 83 S 7 11 29.66 1004 10 16 0.00 0.00
6:55 pm 18:55 Mostly Cloudy 72 22 64 18 78 78 NW 14 22 29.66 1004 10 16 0.00 0.00
7:56 pm 19:56 Mostly Cloudy 70 21 63 17 78 78 NW 12 19 29.68 1005 10 16 0.00 0.00
8:57 pm 20:57 Mostly Cloudy 68 20 61 16 78 78 NNW 9 15 29.69 1005 10 16 0.00 0.00
9:57 pm 21:57 Mostly Cloudy 66 19 61 16 83 83 NW 9 15 29.70 1006 10 16 0.00 0.00
10:58 pm 22:58 Mostly Cloudy 66 19 59 15 78 78 WNW 10 17 29.70 1006 10 16 0.00 0.00
11:56 pm 23:56 Mostly Cloudy 64 18 59 15 83 83 NNW 6 9 29.68 1005 10 16 0.00 0.00

Powered by AerisWeather